Location: Fredericksburg
(30.2750°N, 98.8720°W)
Time: 22:27:11
(UTC-05:00)

Amateur Radio Satellites - All Passes

Search period start: 27 September 2016 21:57
Search period end: 28 September 2016 21:57
Location: Fredericksburg, 30.2750°N, 98.8720°W

Satellite Date Start Highest point End Downlink Frequencies (MHz)
Time Altitude Azimuth
HO-68 27 Sep 21:57:55 22:03:49 27° 263° (W) 22:09:44 435.675
UWE-3 27 Sep 22:07:49 22:11:52 48° 260° (W) 22:15:53 435.000/436.395/437.385
COMPASS 1 27 Sep 22:11:18 22:14:25 20° 264° (W) 22:17:33 437.405
JUGNU 27 Sep 22:23:17 22:28:21 29° 177° (S) 22:33:23 437.505
Oscar 11 27 Sep 22:35:49 22:39:49 38° 261° (W) 22:43:51 145.826/435.025
ZACube-1 27 Sep 22:37:50 22:41:36 34° 262° (W) 22:45:23 437.345
TIGRISAT 27 Sep 22:43:39 22:45:19 12° 94° (E) 22:46:59 435.000
DELFI C3 27 Sep 22:47:33 22:51:32 77° 260° (W) 22:55:32 145.870
PRISM 27 Sep 22:58:23 23:02:10 36° 287° (WNW) 23:05:56 437.425
HUMSAT D 27 Sep 22:58:58 23:02:58 63° 76° (ENE) 23:07:00 437.325/437.525
SRMSAT 27 Sep 23:19:46 23:24:19 23° 169° (S) 23:28:53 437.500
AO-85 27 Sep 23:21:31 23:22:53 11° 310° (NW) 23:24:13 145.980
UNISAT 6 27 Sep 23:21:58 23:26:08 39° 99° (E) 23:30:23 437.425
RS-15 27 Sep 23:33:56 23:41:37 19° 324° (NW) 23:49:33 29.354- 29.394
ESTCUBE 1 27 Sep 23:37:52 23:41:31 25° 71° (ENE) 23:45:11 437.505/2401.250
VELOX 1 27 Sep 23:40:00 23:41:25 11° 67° (ENE) 23:42:50 145.980
CUBEBUG 1 27 Sep 23:42:55 23:45:44 17° 69° (ENE) 23:48:32 437.445
JAS-2 27 Sep 23:56:06 23:59:51 14° 90° (E) 00:03:28 435.910
ANTELSAT 27 Sep 23:57:09 00:01:35 76° 283° (WNW) 00:06:07 437.575/2403.000
JUGNU 28 Sep 00:12:00 00:16:54 27° 187° (S) 00:21:45 437.505
M-CUBED/EXP-1 PRIME 28 Sep 00:17:53 00:21:37 30° 70° (ENE) 00:25:07 437.505
TIGRISAT 28 Sep 00:17:54 00:22:06 44° 285° (WNW) 00:26:24 435.000
50 SAT 28 Sep 00:18:54 00:22:01 28° 73° (ENE) 00:25:09 437.505
SPROUT 28 Sep 00:23:48 00:26:49 19° 71° (ENE) 00:29:50 437.525
AISAT 28 Sep 00:29:29 00:33:46 49° 75° (ENE) 00:38:04 437.250
SO-50 28 Sep 00:34:31 00:37:36 18° 53° (NE) 00:40:37 436.795
DUCHIFAT 1 28 Sep 00:35:17 00:38:47 26° 97° (E) 00:42:17 145.980
QB50P1 28 Sep 00:37:08 00:40:54 32° 98° (E) 00:44:41 145.935-145.965
UKube-1 28 Sep 00:37:15 00:40:48 25° 71° (ENE) 00:44:20 .
POPSAT HIP 1 28 Sep 00:50:24 00:54:28 47° 100° (E) 00:58:31 437.405
BEESAT 2 28 Sep 00:59:30 01:01:47 15° 109° (ESE) 01:04:04 435.950
UNISAT 6 28 Sep 01:00:08 01:02:30 14° 291° (WNW) 01:04:52 437.425
DX 1 28 Sep 01:04:54 01:09:15 77° 78° (ENE) 01:13:39 434.975-435.025
NANOSAT C BR1 28 Sep 01:06:39 01:10:51 75° 103° (ESE) 01:15:02 145.865
SRMSAT 28 Sep 01:07:56 01:13:00 30° 179° (S) 01:18:03 437.500
VELOX 1 28 Sep 01:13:04 01:17:23 49° 260° (W) 01:21:43 145.980
AUBIESAT-1 28 Sep 01:14:26 01:18:36 60° 255° (WSW) 01:22:28 437.475
ESTCUBE 1 28 Sep 01:14:38 01:18:11 23° 264° (W) 01:21:45 437.505/2401.250
CUBEBUG 1 28 Sep 01:17:45 01:21:42 32° 262° (W) 01:25:40 437.445
QB50P2 28 Sep 01:30:12 01:34:15 46° 285° (WNW) 01:38:17 145.880/145.840
Cosmos 2491 28 Sep 01:31:00 01:35:28 15° 69° (ENE) 01:39:53 435.465 / 435.565
POLYITAN 1 28 Sep 01:32:25 01:36:27 46° 285° (WNW) 01:40:29 437.675
JAS-2 28 Sep 01:37:41 01:45:34 85° 284° (WNW) 01:52:53 435.910
BEESAT 3 28 Sep 01:39:45 01:43:35 65° 298° (WNW) 01:47:29 437.485
TISAT 1 28 Sep 01:43:26 01:47:05 30° 73° (ENE) 01:50:44 437.305
M-CUBED/EXP-1 PRIME 28 Sep 01:53:23 01:56:02 16° 258° (WSW) 01:58:36 437.505
50 SAT 28 Sep 01:54:10 01:55:31 12° 266° (W) 01:56:52 437.505
SPROUT 28 Sep 01:58:59 02:02:32 26° 263° (W) 02:06:06 437.525
JUGNU 28 Sep 02:01:47 02:05:21 16° 196° (SSW) 02:08:53 437.505
AISAT 28 Sep 02:09:32 02:10:25 10° 266° (W) 02:11:18 437.250
DUCHIFAT 1 28 Sep 02:11:21 02:14:15 18° 289° (WNW) 02:17:09 145.980
BUGSAT 1 28 Sep 02:12:44 02:16:33 44° 285° (WNW) 02:20:24 437.445
UKube-1 28 Sep 02:13:32 02:16:44 20° 263° (W) 02:19:56 .
QB50P1 28 Sep 02:13:56 02:16:22 15° 290° (WNW) 02:18:48 145.935-145.965
SO-50 28 Sep 02:14:01 02:18:09 36° 248° (WSW) 02:22:12 436.795
SWISSCUBE 28 Sep 02:16:22 02:19:03 15° 67° (ENE) 02:21:44 437.505
Oscar 19 28 Sep 02:17:30 02:21:54 28° 97° (E) 02:26:15 437.125/150
YUBILEINY 28 Sep 02:24:04 02:29:05 17° 81° (E) 02:34:05 435.215
BEESAT 28 Sep 02:28:42 02:31:57 19° 69° (ENE) 02:35:13 436.000
POPSAT HIP 1 28 Sep 02:28:55 02:29:46 11° 292° (WNW) 02:30:37 437.405
BEESAT 2 28 Sep 02:35:49 02:39:17 30° 302° (WNW) 02:42:47 435.950
SRMSAT 28 Sep 02:56:55 03:01:41 25° 189° (S) 03:06:28 437.500
Gurwin Techsat 1B 28 Sep 03:15:12 03:20:22 51° 100° (E) 03:25:31 435.225
TISAT 1 28 Sep 03:20:10 03:22:42 16° 265° (W) 03:25:14 437.305
AIST 2 28 Sep 03:21:47 03:24:37 18° 109° (ESE) 03:27:28 435.215
Cosmos 2491 28 Sep 03:24:23 03:33:16 87° 266° (W) 03:42:04 435.465 / 435.565
JAS-2 28 Sep 03:25:39 03:29:18 14° 300° (WNW) 03:32:53 435.910
ITUPSAT 1 28 Sep 03:38:37 03:43:20 71° 258° (WSW) 03:48:06 437.325
SWISSCUBE 28 Sep 03:51:57 03:56:25 42° 260° (W) 04:00:56 437.505
MOZHAYETS 4 28 Sep 03:53:47 03:57:22 23° 71° (ENE) 04:00:57
Oscar 19 28 Sep 03:56:52 04:01:02 25° 290° (WNW) 04:05:11 437.125/150
BEESAT 28 Sep 04:05:09 04:09:26 34° 261° (W) 04:13:44 436.000
RS-15 28 Sep 04:13:27 04:22:15 22° 39° (NE) 04:30:55 29.354- 29.394
YUBILEINY 28 Sep 04:16:02 04:24:49 76° 276° (W) 04:33:36 435.215
KKS-1 28 Sep 04:18:01 04:21:46 27° 72° (ENE) 04:25:32 437.445
ISS 28 Sep 04:36:57 04:40:13 71° 46° (NE) 04:43:29 145.825
PCSat 28 Sep 04:40:09 04:45:23 54° 111° (ESE) 04:50:40 145.827
SRMSAT 28 Sep 04:47:16 04:50:17 14° 197° (SSW) 04:53:20 437.500
ITAMSAT 1 28 Sep 04:49:24 04:54:35 70° 285° (WNW) 04:59:47 435.822/435.867
STARS 28 Sep 04:51:12 04:55:00 30° 72° (ENE) 04:58:48 437.465
Gurwin Techsat 1B 28 Sep 04:56:48 04:59:49 15° 294° (WNW) 05:02:50 435.225
AIST 2 28 Sep 04:59:22 05:02:51 27° 303° (WNW) 05:06:23 435.215
AO-7 28 Sep 05:01:23 05:09:35 62° 104° (ESE) 05:17:46 29.400- 29.500
Cosmos 2504 28 Sep 05:04:01 05:11:36 88° 96° (E) 05:18:50 435.465 / 435.565
CUBESAT XI-V 28 Sep 05:13:57 05:17:29 22° 70° (ENE) 05:21:03 437.345
Cosmos 2491 28 Sep 05:25:44 05:28:43 12° 281° (W) 05:31:44 435.465 / 435.565
MOZHAYETS 4 28 Sep 05:30:40 05:34:21 24° 263° (W) 05:38:05
HORYU 2 28 Sep 05:36:31 05:38:13 12° 94° (E) 05:39:56 437.375
AIST 1 28 Sep 05:54:33 05:58:53 60° 94° (E) 06:03:12
KKS-1 28 Sep 05:55:02 05:58:15 20° 264° (W) 06:01:30 437.445
CUSAT 1 28 Sep 06:15:56 06:21:57 26° 70° (ENE) 06:27:06 437.405
AO-85 28 Sep 06:16:18 06:18:09 13° 51° (NE) 06:19:58 145.980
YUBILEINY 28 Sep 06:21:40 06:22:54 10° 293° (WNW) 06:24:09 435.215
RS-15 28 Sep 06:24:32 06:36:58 80° 62° (ENE) 06:48:58 29.354- 29.394
PCSat 28 Sep 06:25:39 06:29:04 17° 306° (NW) 06:32:30 145.827
STARS 28 Sep 06:28:25 06:31:19 17° 264° (W) 06:34:14 437.465
NOAA 15 28 Sep 06:35:09 06:38:05 15° 94° (E) 06:40:59 137.62
CUBESAT XI-V 28 Sep 06:50:39 06:54:38 28° 263° (W) 06:58:40 437.345
Cubesat XI-IV 28 Sep 06:51:31 06:55:07 18° 95° (E) 06:58:43 437.490
CUTE-I 28 Sep 06:51:34 06:55:12 18° 95° (E) 06:58:50 437.470
AO-7 28 Sep 06:55:27 07:01:41 24° 299° (WNW) 07:07:56 29.400- 29.500
Cosmos 2504 28 Sep 07:04:02 07:05:41 11° 290° (WNW) 07:07:20 435.465 / 435.565
HORYU 2 28 Sep 07:10:41 07:14:54 44° 286° (WNW) 07:19:08 437.375
GOMX 1 28 Sep 07:10:54 07:14:42 31° 97° (E) 07:18:24 467.674
BRITE-PL 28 Sep 07:22:35 07:27:12 63° 285° (WNW) 07:31:28 437.365/2234.400
DOVE 4 28 Sep 07:31:23 07:34:26 20° 96° (E) 07:37:28 437.250
NOAA 18 28 Sep 07:33:38 07:38:43 39° 100° (E) 07:43:49 137.9125
DANDE 28 Sep 07:46:48 07:55:10 66° 80° (E) 08:02:31 436.750
O/OREOS (USA 219) 28 Sep 07:50:42 07:55:13 81° 109° (ESE) 07:59:48 437.305
LilacSat-2 28 Sep 07:51:56 07:55:47 77° 282° (WNW) 07:59:37 437.200
AO-85 28 Sep 07:55:03 07:58:44 37° 248° (WSW) 08:02:18 145.980
CUSAT 1 28 Sep 07:57:18 08:04:10 43° 271° (W) 08:09:49 437.405
STRAND 1 28 Sep 07:58:51 08:03:50 59° 75° (ENE) 08:08:51 437.568
NOAA 15 28 Sep 08:12:57 08:18:02 49° 287° (WNW) 08:23:05 137.62
Cosmos 2499 28 Sep 08:18:07 08:21:35 14° 83° (E) 08:25:00 435.465 / 435.565
Cubesat XI-IV 28 Sep 08:30:15 08:35:16 42° 287° (WNW) 08:40:17 437.490
CUTE-I 28 Sep 08:30:20 08:35:19 41° 288° (WNW) 08:40:19 437.470
RS-15 28 Sep 08:39:30 08:48:02 23° 259° (W) 08:56:25 29.354- 29.394
GONETS M04 28 Sep 08:39:36 08:47:14 34° 87° (E) 08:54:53
CINEMA 3 28 Sep 08:40:24 08:44:10 31° 99° (E) 08:48:00 145.822/145.860
GOMX 1 28 Sep 08:50:02 08:52:29 15° 291° (WNW) 08:54:52 467.674
CUTE 1.7 + AOD 2 28 Sep 08:51:48 08:55:36 30° 97° (E) 08:59:22 437.475
CANX-2 28 Sep 08:52:57 08:56:57 37° 98° (E) 09:00:55 2200.000
SEEDS 28 Sep 08:53:08 08:56:21 21° 96° (E) 08:59:32 437.485
DOVE 4 28 Sep 09:08:49 09:12:02 22° 288° (WNW) 09:15:14 437.250
AAUSAT CUBESAT 2 28 Sep 09:14:55 09:17:53 19° 95° (E) 09:20:51 437.432
NOAA 18 28 Sep 09:15:03 09:19:04 21° 292° (WNW) 09:23:04 137.9125
HO-68 28 Sep 09:30:18 09:37:28 80° 104° (ESE) 09:44:37 435.675
DANDE 28 Sep 09:31:13 09:37:02 22° 277° (W) 09:42:27 436.750
PRISM 28 Sep 09:41:19 09:45:27 67° 76° (ENE) 09:49:35 437.425
STRAND 1 28 Sep 09:41:46 09:43:17 11° 267° (W) 09:44:48 437.568
CUBEBUG 2 28 Sep 09:45:13 09:49:24 47° 100° (E) 09:53:42 437.445
FUNcube-1 28 Sep 09:49:48 09:52:50 18° 96° (E) 09:55:53 145.935
COMPASS 1 28 Sep 09:58:30 10:02:43 85° 285° (WNW) 10:06:54 437.405
UWE-3 28 Sep 10:02:31 10:06:45 48° 100° (E) 10:11:04 435.000/436.395/437.385
BEESAT 3 28 Sep 10:03:55 10:05:34 12° 53° (NE) 10:07:12 437.485
Cosmos 2499 28 Sep 10:06:41 10:13:53 68° 277° (W) 10:20:54 435.465 / 435.565
UNISAT 6 28 Sep 10:16:31 10:19:16 17° 70° (ENE) 10:22:00 437.425
CINEMA 3 28 Sep 10:18:34 10:21:01 15° 290° (WNW) 10:23:31 145.822/145.860
Oscar 11 28 Sep 10:28:19 10:32:37 57° 100° (E) 10:36:53 145.826/435.025
CUTE 1.7 + AOD 2 28 Sep 10:28:25 10:31:08 17° 290° (WNW) 10:33:51 437.475
SEEDS 28 Sep 10:28:31 10:31:54 23° 288° (WNW) 10:35:17 437.485
CANX-2 28 Sep 10:30:15 10:32:25 14° 291° (WNW) 10:34:35 2200.000
ZACube-1 28 Sep 10:30:54 10:35:15 66° 101° (ESE) 10:39:40 437.345
DELFI C3 28 Sep 10:31:28 10:34:28 20° 96° (E) 10:37:27 145.870
GONETS M04 28 Sep 10:35:34 10:43:43 42° 282° (WNW) 10:51:59
PHONESAT 2.4 28 Sep 10:40:11 10:43:06 90° 73° (ENE) 10:46:01 2401.200-2431.200
HUMSAT D 28 Sep 10:49:00 10:51:43 16° 95° (E) 10:54:25 437.325/437.525
AAUSAT CUBESAT 2 28 Sep 10:49:51 10:53:16 25° 288° (WNW) 10:56:40 437.432
ANTELSAT 28 Sep 10:50:24 10:54:28 43° 75° (ENE) 10:58:30 437.575/2403.000
BEESAT 2 28 Sep 10:58:55 11:02:14 24° 57° (ENE) 11:05:31 435.950
TIGRISAT 28 Sep 11:10:35 11:14:50 76° 78° (ENE) 11:19:05 435.000
HO-68 28 Sep 11:20:30 11:24:19 15° 299° (WNW) 11:28:08 435.675
CUBEBUG 2 28 Sep 11:24:13 11:25:36 11° 291° (WNW) 11:27:00 437.445
FUNcube-1 28 Sep 11:25:14 11:29:00 29° 287° (WNW) 11:32:48 145.935
QB50P1 28 Sep 11:26:03 11:27:37 12° 68° (ENE) 11:29:11 145.935-145.965
POPSAT HIP 1 28 Sep 11:38:22 11:41:05 17° 70° (ENE) 11:43:47 437.405
BEESAT 3 28 Sep 11:39:37 11:43:23 43° 247° (WSW) 11:47:08 437.485
UWE-3 28 Sep 11:41:25 11:42:45 11° 291° (WNW) 11:44:06 435.000/436.395/437.385
JAS-2 28 Sep 11:44:18 11:49:12 23° 64° (ENE) 11:54:31 435.910
UNISAT 6 28 Sep 11:51:59 11:55:43 29° 262° (W) 11:59:26 437.425
NANOSAT C BR1 28 Sep 11:53:33 11:56:59 25° 72° (ENE) 12:00:23 145.865
DELFI C3 28 Sep 12:06:08 12:09:09 21° 288° (WNW) 12:12:10 145.870
QB50P2 28 Sep 12:16:40 12:20:47 58° 76° (ENE) 12:24:56 145.880/145.840
PHONESAT 2.4 28 Sep 12:17:24 12:19:28 17° 345° (NNW) 12:21:33 2401.200-2431.200
POLYITAN 1 28 Sep 12:18:53 12:23:00 58° 76° (ENE) 12:27:07 437.675
HUMSAT D 28 Sep 12:23:34 12:27:17 30° 287° (WNW) 12:31:02 437.325/437.525
AISAT 28 Sep 12:26:49 12:29:15 15° 95° (E) 12:31:40 437.250
ANTELSAT 28 Sep 12:30:25 12:31:19 11° 266° (W) 12:32:13 437.575/2403.000
BEESAT 2 28 Sep 12:36:56 12:39:51 19° 250° (WSW) 12:42:45 435.950
DUCHIFAT 1 28 Sep 12:56:07 13:00:12 53° 260° (W) 13:04:17 145.980
BUGSAT 1 28 Sep 12:56:18 13:00:18 52° 76° (ENE) 13:04:17 437.445
QB50P1 28 Sep 12:58:59 13:02:58 41° 261° (W) 13:06:57 145.935-145.965
DX 1 28 Sep 12:59:39 13:02:53 20° 97° (E) 13:06:06 434.975-435.025
AUBIESAT-1 28 Sep 13:00:48 13:01:28 10° 100° (E) 13:02:09 437.475
VELOX 1 28 Sep 13:08:49 13:13:02 46° 100° (E) 13:17:14 145.980
CUBEBUG 1 28 Sep 13:11:30 13:15:49 71° 101° (E) 13:20:06 437.445
ESTCUBE 1 28 Sep 13:11:42 13:16:13 69° 284° (WNW) 13:20:41 437.505/2401.250
POPSAT HIP 1 28 Sep 13:12:58 13:16:36 28° 262° (W) 13:20:13 437.405
50 SAT 28 Sep 13:24:49 13:28:29 81° 100° (E) 13:32:07 437.505
AIST 2 28 Sep 13:25:29 13:29:16 32° 58° (ENE) 13:33:02 435.215
JAS-2 28 Sep 13:27:42 13:33:39 49° 262° (W) 13:40:24 435.910
Oscar 19 28 Sep 13:29:00 13:33:05 24° 69° (ENE) 13:37:09 437.125/150
NANOSAT C BR1 28 Sep 13:29:38 13:32:36 19° 264° (W) 13:35:35 145.865
PCSat 28 Sep 13:35:36 13:38:22 14° 53° (NE) 13:41:07 145.827
M-CUBED/EXP-1 PRIME 28 Sep 13:36:21 13:39:32 50° 105° (ESE) 13:42:46 437.505
SPROUT 28 Sep 13:49:38 13:53:54 81° 103° (ESE) 13:58:08 437.525
PHONESAT 2.4 28 Sep 13:55:16 13:56:20 11° 2° (N) 13:57:23 2401.200-2431.200
AISAT 28 Sep 14:01:47 14:05:46 35° 287° (WNW) 14:09:42 437.250
UKube-1 28 Sep 14:04:57 14:09:15 78° 284° (WNW) 14:13:32 .
Cosmos 2491 28 Sep 14:24:34 14:30:36 21° 83° (E) 14:36:39 435.465 / 435.565
Gurwin Techsat 1B 28 Sep 14:30:34 14:35:36 46° 73° (ENE) 14:40:39 435.225
AUBIESAT-1 28 Sep 14:33:11 14:35:57 25° 291° (WNW) 14:38:46 437.475
YUBILEINY 28 Sep 14:33:50 14:41:55 41° 78° (ENE) 14:49:57 435.215
DX 1 28 Sep 14:35:27 14:38:58 25° 289° (WNW) 14:42:27 434.975-435.025
SO-50 28 Sep 14:42:44 14:46:25 22° 110° (ESE) 14:50:05 436.795
VELOX 1 28 Sep 14:47:31 14:49:01 12° 293° (WNW) 14:50:32 145.980
Cosmos 2504 28 Sep 15:03:38 15:09:09 21° 75° (ENE) 15:14:55 435.465 / 435.565
AIST 2 28 Sep 15:04:52 15:07:26 16° 251° (WSW) 15:10:00 435.215
Oscar 19 28 Sep 15:07:36 15:12:10 31° 262° (W) 15:16:45 437.125/150
TISAT 1 28 Sep 15:07:46 15:11:53 65° 284° (WNW) 15:16:01 437.305
PCSat 28 Sep 15:16:49 15:22:12 67° 248° (WSW) 15:27:32 145.827
PHONESAT 2.4 28 Sep 15:30:49 15:33:09 21° 18° (NNE) 15:35:28 2401.200-2431.200
ITUPSAT 1 28 Sep 15:44:53 15:49:31 47° 100° (E) 15:54:08 437.325
AO-7 28 Sep 15:53:55 16:01:52 51° 68° (ENE) 16:09:48 29.400- 29.500
SWISSCUBE 28 Sep 15:57:28 16:02:16 78° 102° (ESE) 16:07:04 437.505
ITAMSAT 1 28 Sep 16:01:28 16:06:37 82° 257° (WSW) 16:11:49 435.822/435.867
BEESAT 28 Sep 16:10:22 16:15:10 85° 283° (WNW) 16:19:57 436.000
Gurwin Techsat 1B 28 Sep 16:12:29 16:15:41 16° 265° (W) 16:18:54 435.225
Cosmos 2491 28 Sep 16:17:55 16:26:34 64° 278° (W) 16:35:20 435.465 / 435.565
SO-50 28 Sep 16:22:19 16:26:40 32° 303° (WNW) 16:30:59 436.795
YUBILEINY 28 Sep 16:30:55 16:38:23 34° 273° (W) 16:45:53 435.215
Cosmos 2504 28 Sep 16:55:22 17:02:44 57° 268° (W) 17:10:38 435.465 / 435.565
PHONESAT 2.4 28 Sep 17:06:30 17:09:24 59° 212° (SSW) 17:12:19 2401.200-2431.200
ITUPSAT 1 28 Sep 17:24:26 17:26:53 14° 293° (WNW) 17:29:20 437.325
MOZHAYETS 4 28 Sep 17:30:19 17:34:56 68° 284° (WNW) 17:39:32
AIST 1 28 Sep 17:44:55 17:49:06 55° 267° (W) 17:53:14
AO-7 28 Sep 17:47:54 17:54:44 28° 262° (W) 18:01:37 29.400- 29.500
NOAA 15 28 Sep 17:50:11 17:52:57 14° 66° (ENE) 17:55:43 137.62
KKS-1 28 Sep 17:50:14 17:54:36 65° 285° (WNW) 17:58:58 437.445
HORYU 2 28 Sep 18:02:29 18:06:52 81° 76° (ENE) 18:11:17 437.375
O/OREOS (USA 219) 28 Sep 18:06:31 18:11:03 59° 70° (ENE) 18:15:33 437.305
CUTE-I 28 Sep 18:08:17 18:11:43 18° 67° (ENE) 18:15:11 437.470
Cubesat XI-IV 28 Sep 18:08:25 18:11:50 18° 67° (ENE) 18:15:16 437.490
GOMX 1 28 Sep 18:12:39 18:16:52 24° 71° (ENE) 18:20:59 467.674
STARS 28 Sep 18:21:45 18:26:03 60° 284° (WNW) 18:30:20 437.465
BRITE-PL 28 Sep 18:25:35 18:31:14 78° 78° (ENE) 18:36:54 437.365/2234.400
LilacSat-2 28 Sep 18:28:58 18:31:49 21° 72° (ENE) 18:34:41 437.200
DOVE 4 28 Sep 18:31:55 18:34:27 14° 69° (ENE) 18:36:55 437.250
RS-15 28 Sep 18:33:29 18:39:51 17° 99° (E) 18:46:20 29.354- 29.394
JUGNU 28 Sep 18:34:48 18:36:16 11° 160° (SSE) 18:37:46 437.505
CUBESAT XI-V 28 Sep 18:52:11 18:56:51 72° 283° (WNW) 19:01:28 437.345
NOAA 18 28 Sep 18:54:16 18:59:23 43° 72° (ENE) 19:04:31 137.9125
GONETS M04 28 Sep 19:01:27 19:02:57 10° 66° (ENE) 19:04:27
CUSAT 1 28 Sep 19:09:07 19:14:14 32° 86° (E) 19:20:25 437.405
NOAA 15 28 Sep 19:27:00 19:32:11 55° 259° (W) 19:37:24 137.62
ISS 28 Sep 19:36:42 19:39:37 32° 129° (SE) 19:42:33 145.825
CINEMA 3 28 Sep 19:37:37 19:40:18 16° 71° (ENE) 19:42:56 145.822/145.860
CUTE 1.7 + AOD 2 28 Sep 19:41:29 19:42:27 11° 68° (ENE) 19:43:25 437.475
CANX-2 28 Sep 19:41:49 19:43:49 13° 69° (ENE) 19:45:49 2200.000
CUTE-I 28 Sep 19:46:21 19:51:21 44° 260° (W) 19:56:26 437.470
Cubesat XI-IV 28 Sep 19:46:28 19:51:30 44° 260° (W) 19:56:34 437.490
GOMX 1 28 Sep 19:49:48 19:54:41 34° 262° (W) 19:59:27 467.674
HO-68 28 Sep 19:53:06 19:59:19 33° 67° (ENE) 20:05:30 435.675
LilacSat-2 28 Sep 20:03:29 20:06:00 17° 264° (W) 20:08:32 437.200
Cosmos 2499 28 Sep 20:03:44 20:10:18 29° 77° (ENE) 20:17:14 435.465 / 435.565
DOVE 4 28 Sep 20:06:47 20:11:44 50° 260° (W) 20:16:27 437.250
BRITE-PL 28 Sep 20:09:05 20:10:03 10° 269° (W) 20:11:03 437.365/2234.400
STRAND 1 28 Sep 20:15:27 20:20:03 33° 98° (E) 20:24:39 437.568
JUGNU 28 Sep 20:20:12 20:24:44 22° 168° (SSE) 20:29:14 437.505
AO-85 28 Sep 20:23:15 20:27:13 22° 110° (ESE) 20:31:05 145.980
NOAA 18 28 Sep 20:36:26 20:40:08 18° 264° (W) 20:43:50 137.9125
CUBEBUG 2 28 Sep 20:38:52 20:41:48 19° 71° (ENE) 20:44:42 437.445
RS-15 28 Sep 20:39:02 20:50:29 89° 113° (ESE) 21:02:38 29.354- 29.394
COMPASS 1 28 Sep 20:43:42 20:47:16 28° 73° (ENE) 20:50:53 437.405
DANDE 28 Sep 20:48:05 20:52:44 89° 101° (E) 20:59:06 436.750
CUSAT 1 28 Sep 20:50:42 20:56:03 33° 287° (WNW) 21:02:31 437.405
GONETS M04 28 Sep 20:52:16 21:01:06 77° 84° (E) 21:09:49
UWE-3 28 Sep 20:55:06 20:57:57 18° 71° (ENE) 21:00:48 435.000/436.395/437.385
CINEMA 3 28 Sep 21:13:02 21:17:10 34° 261° (W) 21:21:09 145.822/145.860
SEEDS 28 Sep 21:13:19 21:17:29 73° 259° (W) 21:21:42 437.485
CUTE 1.7 + AOD 2 28 Sep 21:13:45 21:17:48 46° 261° (W) 21:21:54 437.475
ISS 28 Sep 21:13:57 21:16:09 17° 323° (NW) 21:18:21 145.825
CANX-2 28 Sep 21:15:22 21:19:16 37° 262° (W) 21:23:13 2200.000
Oscar 11 28 Sep 21:18:05 21:21:20 21° 71° (ENE) 21:24:35 145.826/435.025
SRMSAT 28 Sep 21:20:06 21:22:47 13° 162° (SSE) 21:25:28 437.500
ZACube-1 28 Sep 21:21:52 21:25:08 23° 72° (ENE) 21:28:25 437.345
PRISM 28 Sep 21:30:07 21:32:18 14° 95° (E) 21:34:29 437.425
AAUSAT CUBESAT 2 28 Sep 21:33:11 21:37:19 83° 258° (WSW) 21:41:30 437.432
HO-68 28 Sep 21:40:17 21:46:48 38° 261° (W) 21:53:21 435.675
